Ketchikan, AK

10:41 PM AKDT on September 22, 2018 (GMT -0800)
Ketchikan International

Weather History for PAKT - June, 2018

Change the Weather History Date:

Friday, June 1, 2018

  Actual Average Record
Temperature  
Mean Temperature 48 °F -  
Max Temperature 52 °F 59 °F 75 °F (1957)
Min Temperature 46 °F 44 °F 37 °F (1973)
Degree Days  
Heating Degree Days 16    
Moisture  
Dew Point 44 °F    
Average Humidity 85    
Maximum Humidity 93    
Minimum Humidity 76    
Precipitation  
Precipitation 0.50 in - - ()
Sea Level Pressure  
Sea Level Pressure 29.90 in    
Wind  
Wind Speed 8 mph (SSE)    
Max Wind Speed 22 mph    
Max Gust Speed 29 mph    
Visibility 7 miles    
Events Rain    
Averages and records for this station are not official NWS values.
T = Trace of Precipitation, MM = Missing Value Source: NWS Daily Summary

Daily Weather History Graph

Daily Weather History Graph

Search for Another Location

Airport or City:

Astronomy

Jun. 01, 2018 Rise Set
Actual Time 4:12 AM AKDT 9:17 PM AKDT
Civil Twilight 3:17 AM AKDT 10:13 PM AKDT
Nautical Twilight 1:28 AM AKDT 12:05 AM AKDT
Astronomical Twilight Sun does not set Sun does not set
Moon 11:52 PM AKDT (6/1) 6:56 AM AKDT (6/1)
Length of Visible Light 18h 55m
Length of Day
17h 04m
Waning Gibbous, 91% of the Moon is Illuminated
Jun 1
Waning Gibbous
Jun 6
Last Quarter
Jun 13
New
Jun 20
First Quarter
Jun 27
Full

Hourly Weather History & Observations

Time (AKDT) Temp. Windchill Dew Point Humidity Pressure Visibility Wind Dir Wind Speed Gust Speed Precip Events Conditions
12:53 AM 48.0 °F - 42.1 °F 80% 29.86 in 10.0 mi South 5.8 mph - N/A   Mostly Cloudy
1:53 AM 48.9 °F - 42.1 °F 77% 29.85 in 10.0 mi South 6.9 mph - N/A   Mostly Cloudy
2:53 AM 48.0 °F - 41.0 °F 77% 29.84 in 10.0 mi South 4.6 mph - N/A   Mostly Cloudy
3:53 AM 48.9 °F - 43.0 °F 80% 29.83 in 8.0 mi South 6.9 mph - 0.00 in Rain Light Rain
4:15 AM 48.0 °F - 44.1 °F 86% 29.83 in 6.0 mi SSE 5.8 mph - 0.02 in Rain Light Rain
4:30 AM 48.0 °F - 44.1 °F 86% 29.83 in 5.0 mi SSE 9.2 mph - 0.04 in Rain Light Rain
4:53 AM 46.9 °F - 43.0 °F 86% 29.83 in 3.0 mi SSE 10.4 mph - 0.08 in Rain Light Rain
5:07 AM 46.9 °F - 43.0 °F 86% 29.83 in 4.0 mi SSE 8.1 mph - 0.02 in Rain Light Rain
5:53 AM 46.9 °F - 43.0 °F 86% 29.82 in 6.0 mi SE 10.4 mph - 0.07 in Rain Light Rain
6:07 AM 46.4 °F 41.5 °F 42.8 °F 87% 29.82 in 8.0 mi SSE 10.4 mph - N/A Rain Light Rain
6:53 AM 48.2 °F - 44.6 °F 87% 29.81 in 5.0 mi South 9.2 mph - N/A Rain Light Rain
7:53 AM 48.2 °F - 42.8 °F 82% 29.80 in 5.0 mi SSE 10.4 mph - N/A Rain Light Rain
8:53 AM 48.2 °F - 44.6 °F 87% 29.80 in 4.0 mi SSE 6.9 mph - N/A Rain Rain
9:53 AM 48.2 °F - 42.8 °F 82% 29.79 in 6.0 mi SSE 9.2 mph - N/A Rain Light Rain
10:53 AM 50.0 °F - 44.6 °F 82% 29.79 in 6.0 mi SSE 10.4 mph - N/A Rain Rain
11:53 AM 48.2 °F - 44.6 °F 87% 29.82 in 6.0 mi SE 13.8 mph 21.9 mph N/A Rain Light Rain
12:53 PM 50.0 °F - 44.6 °F 82% 29.83 in 10.0 mi SSE 13.8 mph 24.2 mph N/A Rain Light Rain
1:53 PM 50.0 °F - 44.6 °F 82% 29.86 in 10.0 mi SE 21.9 mph 28.8 mph N/A Rain Light Rain
2:53 PM 50.0 °F - 46.4 °F 87% 29.89 in 10.0 mi SE 12.7 mph - N/A Rain Light Rain
3:53 PM 51.8 °F - 46.4 °F 82% 29.91 in 7.0 mi SE 11.5 mph - N/A Rain Light Rain
4:53 PM 51.8 °F - 44.6 °F 76% 29.93 in 10.0 mi ESE 13.8 mph - N/A   Overcast
5:53 PM 51.8 °F - 44.6 °F 76% 29.94 in 10.0 mi SE 12.7 mph 19.6 mph N/A   Overcast
6:53 PM 48.9 °F - 45.0 °F 86% 29.98 in 5.0 mi SE 11.5 mph - 0.07 in Rain Light Rain
7:53 PM 46.4 °F 42.9 °F 44.6 °F 93% 29.99 in 10.0 mi SSE 6.9 mph - N/A Rain Light Rain
8:53 PM 46.4 °F 43.5 °F 44.6 °F 93% 30.01 in 10.0 mi South 5.8 mph - N/A   Overcast
9:53 PM 46.9 °F - 44.1 °F 90% 30.03 in 7.0 mi SSE 5.8 mph - 0.01 in Rain Light Rain
10:00 PM 46.9 °F - 44.1 °F 90% 30.03 in 5.0 mi SE 6.9 mph - 0.00 in Rain Light Rain
10:19 PM 46.9 °F - 44.1 °F 90% 30.03 in 5.0 mi SE 8.1 mph - 0.01 in Rain Light Rain
10:25 PM 46.9 °F - 44.1 °F 90% 30.03 in 5.0 mi SE 6.9 mph - 0.03 in Rain Rain
10:51 PM 46.4 °F 44.3 °F 44.6 °F 93% 30.04 in 6.0 mi SSE 4.6 mph - 0.07 in Rain Rain
10:53 PM 46.9 °F - 44.1 °F 90% 30.04 in 4.0 mi SSE 4.6 mph - 0.08 in Rain Rain
11:23 PM 46.9 °F - 44.1 °F 90% 30.05 in 9.0 mi South 3.5 mph - 0.08 in Rain Light Rain
11:53 PM 48.0 °F - 44.1 °F 86% 30.06 in 2.5 mi Calm Calm - 0.19 in Rain Heavy Rain